Location: Heidgraben
(53.7081°N, 9.6576°E)
Time: 04:08:47
(UTC+00:00)

Meteor 1-11 - Pass Details

Date: 05 July 2020
Orbit: 842 x 886 km, 81.2° (Epoch: 06 August)

Event Time Altitude Azimuth Distance (km) Brightness Sun altitude
Exits shadow 21:05:31 -1° 191° (S) 3,488 7.0 -7.8°
Rises 21:05:44 0° 191° (S) 3,404 6.9 -7.8°
Reaches altitude 10° 21:08:08 10° 191° (S) 2,478 6.2 -8.0°
Maximum altitude 21:13:46 89° 104° (ESE) 868 4.3 -8.4°
Drops below altitude 10° 21:19:32 10° 14° (NNE) 2,525 7.4 -8.9°
Sets 21:21:59 0° 14° (NNE) 3,474 8.2 -9.0°
